Stations météo

réclame
Mon MeteoGroup
K14A, Pays-Bas (6204): Température de l'air & dewpoint: 21.01.2020 14:00:00 - 27.01.2020 14:00:00 (CET)K14A, Pays-Bas (6204): Vitesse du vent & gusts: 21.01.2020 14:00:00 - 27.01.2020 14:00:00 (CET)K14A, Pays-Bas (6204): Direction du vent: 21.01.2020 14:00:00 - 27.01.2020 14:00:00 (CET)K14A, Pays-Bas (6204): reduced air pressure: 21.01.2020 14:00:00 - 27.01.2020 14:00:00 (CET)K14A, Pays-Bas (6204): visibility: 21.01.2020 14:00:00 - 27.01.2020 14:00:00 (CET)
Date & Time tt [°C] td [°C] ff [km/h] ff [knt] fx [km/h] fx [knt] dd ppp [hPa] vv [km]
27.01.2020 14:00:00 9,0 7,0 48 26 47 25 - 1000,6 10
27.01.2020 13:00:00 8,6 7,0 46 25 50 27 - 1001,3 10
27.01.2020 12:00:00 8,9 6,6 48 26 47 25 - 1002,1 10
27.01.2020 11:00:00 8,7 6,6 46 25 47 25 - 1002,4 10
27.01.2020 10:00:00 8,8 6,6 46 25 47 25 SE 1002,8 10
27.01.2020 09:00:00 8,7 7,2 44 24 47 25 SE 1003,3 10
27.01.2020 08:00:00 8,6 6,8 48 26 47 25 SE 1003,4 10
27.01.2020 07:00:00 8,4 6,2 39 21 43 23 SE 1003,5 10
27.01.2020 06:00:00 8,5 6,2 41 22 50 27 SSE 1004,1 10
27.01.2020 05:00:00 8,4 6,2 41 22 43 23 SSE 1004,3 10
27.01.2020 04:00:00 8,4 6,6 44 24 50 27 WSW 1004,5 10
27.01.2020 03:00:00 8,7 7,1 50 27 54 29 WSW 1004,3 10
27.01.2020 02:00:00 8,9 7,7 54 29 65 35 SE 1004,4 9
27.01.2020 01:00:00 8,6 7,8 59 32 65 35 ESE 1004,5 9
27.01.2020 00:00:00 8,6 7,7 55 30 58 31 S 1005,2 8
26.01.2020 23:00:00 8,6 7,2 50 27 54 29 S 1005,9 9
26.01.2020 22:00:00 8,7 6,9 52 28 58 31 S 1007,1 10
26.01.2020 21:00:00 8,8 6,9 54 29 58 31 ESE 1007,7 9
26.01.2020 20:00:00 8,8 6,7 54 29 58 31 ESE 1008,5 10
26.01.2020 19:00:00 8,8 7,0 52 28 54 29 ESE 1008,8 9
26.01.2020 18:00:00 8,6 7,0 50 27 50 27 ESE 1009,1 9
26.01.2020 17:00:00 8,6 6,6 41 22 54 29 S 1009,6 10
26.01.2020 16:00:00 8,5 6,0 52 28 54 29 ESE 1010,4 10
26.01.2020 15:00:00 8,6 6,8 42 23 47 25 S 1010,5 10
26.01.2020 14:00:00 8,4 6,9 39 21 47 25 S 1011,1 7
26.01.2020 13:00:00 8,4 6,9 41 22 40 21 S 1011,8 7
26.01.2020 12:00:00 8,8 6,6 29 16 47 25 S 1012,4 12
26.01.2020 11:00:00 8,5 6,0 34 18 43 23 ESE 1013,1 10
26.01.2020 10:00:00 8,1 5,9 37 20 43 23 SE 1013,3 10
26.01.2020 09:00:00 7,9 6,3 41 22 43 23 ESE 1013,3 7
26.01.2020 08:00:00 7,4 6,4 41 22 40 21 - 1013,3 6
26.01.2020 07:00:00 6,8 6,2 41 22 43 23 - 1013,8 4,7
26.01.2020 06:00:00 6,4 6,1 39 21 43 23 - 1014,0 3,6
26.01.2020 05:00:00 5,8 5,4 39 21 40 21 S 1014,3 2,7
26.01.2020 04:00:00 5,8 5,2 41 22 40 21 S 1014,8 2,7
26.01.2020 03:00:00 6,0 5,2 37 20 40 21 S 1015,3 3,4
26.01.2020 02:00:00 6,0 4,8 37 20 40 21 S 1015,7 5
26.01.2020 01:00:00 6,0 4,4 35 19 36 19 S 1016,6 10
26.01.2020 00:00:00 6,9 4,8 34 18 36 19 S 1017,0 10
25.01.2020 23:00:00 7,3 5,4 28 15 36 19 SSW 1017,4 10
25.01.2020 22:00:00 7,3 4,4 22 12 32 18 - 1018,1 10
25.01.2020 21:00:00 7,1 4,5 28 15 32 18 - 1018,4 10
25.01.2020 20:00:00 7,0 4,2 34 18 36 19 WSW 1018,5 10
25.01.2020 19:00:00 6,8 3,7 34 18 36 19 WSW 1018,5 10
25.01.2020 18:00:00 6,6 3,5 35 19 40 21 - 1018,4 10
25.01.2020 17:00:00 6,6 2,9 34 18 40 21 WSW 1018,3 10
25.01.2020 16:00:00 6,8 2,5 34 18 40 21 - 1018,3 10
25.01.2020 15:00:00 6,9 1,6 35 19 40 21 - 1018,7 10
25.01.2020 14:00:00 7,1 2,9 34 18 40 21 SW 1019,3 10
25.01.2020 13:00:00 7,3 3,5 28 15 32 18 - 1019,7 10
25.01.2020 12:00:00 7,5 3,4 28 15 32 18 - 1020,3 10
25.01.2020 11:00:00 7,5 2,8 29 16 32 18 WSW 1020,2 10
25.01.2020 10:00:00 7,3 2,7 28 15 36 19 - 1020,0 10
25.01.2020 09:00:00 7,1 3,3 28 15 32 18 SW 1020,2 10
25.01.2020 08:00:00 6,9 3,0 31 17 32 18 - 1019,9 10
25.01.2020 07:00:00 7,4 3,3 26 14 29 16 - 1019,8 10
25.01.2020 06:00:00 7,5 3,3 26 14 29 16 - 1019,4 10
25.01.2020 05:00:00 7,3 4,7 26 14 25 14 WSW 1019,7 10
25.01.2020 04:00:00 7,4 5,9 26 14 25 14 - 1020,1 10
25.01.2020 03:00:00 7,4 5,7 24 13 25 14 WSW 1020,5 8
25.01.2020 02:00:00 7,4 5,4 26 14 25 14 WSW 1020,7 10
25.01.2020 01:00:00 7,3 3,8 21 11 25 14 - 1020,9 10
25.01.2020 00:00:00 7,3 3,8 24 13 29 16 W 1021,0 10
24.01.2020 23:00:00 7,6 4,0 22 12 22 12 W 1021,1 10
24.01.2020 22:00:00 7,2 3,3 21 11 22 12 WSW 1021,4 10
24.01.2020 21:00:00 7,9 3,6 21 11 29 16 W 1021,6 10
24.01.2020 20:00:00 8,6 3,9 21 11 25 14 W 1021,6 10
24.01.2020 19:00:00 7,4 3,4 18 10 29 16 - 1021,6 10
24.01.2020 18:00:00 7,6 3,9 21 11 29 16 - 1021,5 10
24.01.2020 17:00:00 7,3 5,1 16 9 29 16 - 1021,2 10
24.01.2020 16:00:00 7,4 4,6 28 15 29 16 W 1021,3 10
24.01.2020 15:00:00 7,0 4,3 24 13 29 16 WSW 1021,2 10
24.01.2020 14:00:00 6,9 4,7 26 14 29 16 WSW 1021,7 10
24.01.2020 13:00:00 7,0 5,7 22 12 25 14 WSW 1022,4 10
24.01.2020 12:00:00 6,8 5,9 22 12 22 12 WSW 1022,8 10
24.01.2020 11:00:00 7,0 5,8 26 14 29 16 W 1023,5 10
24.01.2020 10:00:00 6,6 5,5 21 11 22 12 - 1022,8 10
24.01.2020 09:00:00 6,9 5,3 22 12 29 16 WSW 1022,7 10
24.01.2020 08:00:00 6,5 5,5 24 13 32 18 W 1023,2 7
24.01.2020 07:00:00 6,3 5,5 26 14 29 16 WSW 1023,1 6
24.01.2020 06:00:00 6,1 5,4 26 14 29 16 W 1022,9 5
24.01.2020 05:00:00 6,3 5,1 22 12 25 14 WSW 1023,5 7
24.01.2020 04:00:00 6,4 5,6 18 10 22 12 WSW 1024,2 10
24.01.2020 03:00:00 6,5 4,9 18 10 25 14 WSW 1025,0 10
24.01.2020 02:00:00 6,3 5,1 16 9 22 12 SW 1025,2 10
24.01.2020 01:00:00 6,6 4,5 15 8 22 12 SW 1025,9 10
24.01.2020 00:00:00 6,9 4,7 13 7 18 10 - 1026,5 10
23.01.2020 23:00:00 6,6 5,6 9 5 18 10 - 1026,8 10
23.01.2020 22:00:00 6,2 6,0 11 6 18 10 - 1027,4 9
23.01.2020 21:00:00 6,8 6,2 15 8 22 12 WSW 1027,9 9
23.01.2020 20:00:00 6,3 6,0 16 9 18 10 - 1028,2 10
23.01.2020 19:00:00 6,2 5,9 15 8 18 10 - 1028,6 10
23.01.2020 18:00:00 6,3 5,6 15 8 18 10 - 1028,7 10
23.01.2020 17:00:00 6,5 5,6 13 7 18 10 - 1029,1 10
23.01.2020 16:00:00 6,8 5,6 8 4 14 8 SW 1029,5 10
23.01.2020 15:00:00 6,6 5,6 11 6 14 8 - 1030,5 10
23.01.2020 14:00:00 6,5 5,6 15 8 18 10 - 1031,7 10
23.01.2020 13:00:00 7,1 6,0 9 5 11 6 S 1032,5 10
23.01.2020 12:00:00 6,6 6,0 8 4 11 6 - 1033,3 10
23.01.2020 11:00:00 6,8 6,1 5 3 11 6 S 1033,3 10
23.01.2020 10:00:00 8,0 6,8 4 2 11 6 - 1034,1 10
23.01.2020 09:00:00 8,1 7,6 9 5 11 6 - 1034,4 10
23.01.2020 08:00:00 6,9 6,2 7 4 11 6 - 1034,5 4,0
23.01.2020 07:00:00 7,7 6,6 9 5 11 6 - 1034,5 10
23.01.2020 06:00:00 7,3 6,4 13 7 14 8 - 1034,4 8
23.01.2020 05:00:00 8,3 7,2 8 4 14 8 SW 1035,0 10
23.01.2020 04:00:00 8,8 8,0 9 5 11 6 - 1035,5 0,4
23.01.2020 03:00:00 8,1 8,1 2 1 7 4 - 1035,9 0,4
23.01.2020 02:00:00 7,5 7,5 4 2 7 4 - 1036,4 0,3
23.01.2020 01:00:00 7,5 7,5 2 1 7 4 - 1036,8 0,7
23.01.2020 00:00:00 7,4 7,4 8 4 7 4 NNE 1037,0 0,7
22.01.2020 23:00:00 7,4 7,4 9 5 7 4 N 1037,2 0,5
22.01.2020 22:00:00 7,4 7,4 5 3 11 6 N 1037,0 0,8
22.01.2020 21:00:00 7,3 7,3 11 6 14 8 N 1037,0 0,8
22.01.2020 20:00:00 7,5 7,5 11 6 14 8 N 1037,1 0,4
22.01.2020 19:00:00 7,5 7,5 15 8 18 10 - 1037,1 3,7
22.01.2020 18:00:00 7,5 7,5 21 11 22 12 - 1036,6 1,9
22.01.2020 17:00:00 7,5 7,5 13 7 18 10 - 1036,6 0,5
22.01.2020 16:00:00 7,6 7,6 11 6 18 10 - 1036,8 0,8
22.01.2020 15:00:00 7,9 7,9 15 8 18 10 - 1036,9 0,5
22.01.2020 14:00:00 8,2 7,3 9 5 22 12 - 1037,2 10
22.01.2020 13:00:00 8,3 7,2 15 8 14 8 N 1037,5 10
22.01.2020 12:00:00 8,2 7,4 16 9 18 10 N 1037,8 10
22.01.2020 11:00:00 7,8 7,6 15 8 18 10 N 1038,0 4,7
22.01.2020 10:00:00 7,7 7,4 18 10 22 12 - 1037,6 3,7
22.01.2020 09:00:00 7,6 7,4 21 11 25 14 - 1037,3 3,0
22.01.2020 08:00:00 7,4 7,3 18 10 29 16 - 1036,8 2,2
22.01.2020 07:00:00 7,1 6,9 18 10 25 14 - 1036,8 2,3
22.01.2020 06:00:00 7,1 6,3 18 10 32 18 - 1037,0 9
22.01.2020 05:00:00 7,5 5,8 29 16 32 18 W 1037,0 10
22.01.2020 04:00:00 7,1 6,1 26 14 29 16 W 1037,4 7
22.01.2020 03:00:00 6,4 6,0 21 11 29 16 WNW 1038,1 4,6
22.01.2020 02:00:00 6,6 6,0 29 16 29 16 W 1038,3 4,4
22.01.2020 01:00:00 6,3 5,6 26 14 25 14 W 1038,5 4,3
22.01.2020 00:00:00 6,5 4,9 24 13 29 16 WSW 1038,5 10
21.01.2020 23:00:00 7,4 5,2 18 10 29 16 - 1039,0 10
21.01.2020 22:00:00 7,5 4,8 24 13 29 16 W 1039,2 10
21.01.2020 21:00:00 7,5 5,0 22 12 25 14 W 1039,4 10
21.01.2020 20:00:00 6,8 4,5 9 5 25 14 - 1039,2 10
21.01.2020 19:00:00 6,7 4,4 16 9 29 16 - 1039,7 10
21.01.2020 18:00:00 6,6 3,9 13 7 29 16 W 1038,8 10
21.01.2020 17:00:00 6,8 4,0 22 12 29 16 W 1039,3 10
21.01.2020 16:00:00 6,4 3,5 18 10 25 14 W 1040,0 10
21.01.2020 15:00:00 6,4 3,6 22 12 29 16 W 1040,4 10
21.01.2020 14:00:00 6,1 3,6 24 13 29 16 W 1040,5 10

tt = Température de l'air
td = dewpoint
ff = Vitesse du vent
fx = gusts
dd = Direction du vent
ppp = reduced air pressure
vv = visibility

stations d'obs. à proximité